Weather History for Orlando International, FL

Change the Weather History Date:

Saturday, July 21, 2012

  Actual Average Record
Temperature  
Mean Temperature 86 °F 83 °F  
Max Temperature 95 °F 92 °F 98 °F (1892)
Min Temperature 77 °F 74 °F 66 °F (1899)
Degree Days  
Heating Degree Days 0 0  
Month to date heating degree days 0 0  
Since 1 June heating degree days 0 0  
Since 1 July heating degree days 0 0  
Cooling Degree Days 21 18  
Month to date cooling degree days 378 370  
Year to date cooling degree days 1869 1661  
Since 1 June cooling degree days 830 860  
Growing Degree Days 35 (Base 50)    
Moisture  
Dew Point 73 °F    
Average Humidity 73    
Maximum Humidity 97    
Minimum Humidity 49    
Precipitation  
Precipitation 0.00 in 0.24 in 1.95 in (1999)
Month to date precipitation 2.53 4.86  
Year to date precipitation 21.54 27.07  
Sea Level Pressure  
Sea Level Pressure 30.09 in    
Wind  
Wind Speed 5 mph (SE)    
Max Wind Speed 16 mph    
Max Gust Speed 18 mph    
Visibility 10 miles    
Events      
T = Trace of Precipitation, MM = Missing Value Source: NWS Daily Summary

Daily Weather History Graph

Daily Weather History Graph

Search for Another Location

Airport:

Trip Planner

Search our weather history database for the weather conditions in past years. The results will help you decide how hot, cold, wet, or windy it might be!

Date:

Astronomy

Jul. 21, 2012 Rise Set
Actual Time 6:41 AM EDT 8:21 PM EDT
Civil Twilight 6:15 AM EDT 8:47 PM EDT
Nautical Twilight 5:43 AM EDT 9:19 PM EDT
Astronomical Twilight 5:11 AM EDT 9:51 PM EDT
Moon 9:02 AM EDT (7/21) 9:53 PM EDT (7/21)
Length of Visible Light 14h 32m
Length of Day
13h 40m
Waxing Crescent, 7% of the Moon is Illuminated
Jul 21
Waxing Crescent
Jul 26
First Quarter
Aug 1
Full
Aug 9
Last Quarter
Aug 17
New

Hourly Weather History & Observations

Time (EDT) Temp. Heat Index Dew Point Humidity Pressure Visibility Wind Dir Wind Speed Gust Speed Precip Events Conditions
12:53 AM 80.1 °F 84.5 °F 73.9 °F 81% 30.10 in 10.0 mi Calm Calm - N/A   Partly Cloudy
1:53 AM 79.0 °F - 75.0 °F 88% 30.09 in 10.0 mi SSE 4.6 mph - N/A   Scattered Clouds
2:53 AM 78.1 °F - 75.0 °F 90% 30.08 in 10.0 mi Calm Calm - N/A   Partly Cloudy
3:53 AM 78.1 °F - 75.0 °F 90% 30.06 in 10.0 mi Calm Calm - N/A   Partly Cloudy
4:53 AM 78.8 °F - 75.2 °F 89% 30.07 in 10.0 mi Calm Calm - N/A   Partly Cloudy
5:53 AM 77.0 °F - 75.2 °F 94% 30.09 in 10.0 mi Calm Calm - N/A   Scattered Clouds
6:53 AM 77.0 °F - 75.2 °F 94% 30.11 in 10.0 mi Calm Calm - N/A   Mostly Cloudy
7:53 AM 78.8 °F - 77.0 °F 94% 30.11 in 10.0 mi ESE 3.5 mph - N/A   Scattered Clouds
8:53 AM 80.6 °F 86.2 °F 75.2 °F 84% 30.12 in 10.0 mi SE 8.1 mph - N/A   Scattered Clouds
9:53 AM 84.2 °F 92.3 °F 75.2 °F 74% 30.12 in 10.0 mi SSE 10.4 mph - N/A   Scattered Clouds
10:53 AM 86.0 °F 95.1 °F 75.0 °F 70% 30.13 in 10.0 mi South 8.1 mph - N/A   Mostly Cloudy
11:53 AM 89.6 °F 98.2 °F 73.4 °F 59% 30.13 in 10.0 mi SE 6.9 mph - N/A   Scattered Clouds
12:53 PM 89.6 °F 96.2 °F 71.6 °F 55% 30.11 in 10.0 mi SSW 8.1 mph - N/A   Mostly Cloudy
1:53 PM 91.4 °F 98.4 °F 71.6 °F 52% 30.11 in 10.0 mi SSE 4.6 mph - N/A   Scattered Clouds
2:53 PM 93.0 °F 101.9 °F 73.0 °F 52% 30.09 in 10.0 mi South 5.8 mph - N/A   Scattered Clouds
3:53 PM 93.9 °F 100.8 °F 71.1 °F 47% 30.06 in 10.0 mi Calm Calm - N/A   Scattered Clouds
4:53 PM 91.0 °F 97.6 °F 71.1 °F 52% 30.05 in 10.0 mi SE 6.9 mph - N/A   Scattered Clouds
5:53 PM 91.4 °F 100.1 °F 73.4 °F 55% 30.05 in 10.0 mi East 13.8 mph - N/A   Scattered Clouds
6:53 PM 89.1 °F 94.1 °F 70.0 °F 53% 30.06 in 10.0 mi ESE 13.8 mph - N/A   Scattered Clouds
7:53 PM 84.9 °F 88.8 °F 69.1 °F 59% 30.06 in 10.0 mi ESE 10.4 mph - N/A   Scattered Clouds
8:53 PM 82.9 °F 88.0 °F 72.0 °F 69% 30.09 in 10.0 mi East 6.9 mph - N/A   Scattered Clouds
9:53 PM 82.0 °F 87.4 °F 73.0 °F 74% 30.10 in 10.0 mi East 8.1 mph - N/A   Scattered Clouds
10:53 PM 80.1 °F 84.5 °F 73.9 °F 81% 30.12 in 10.0 mi SE 5.8 mph - N/A   Partly Cloudy
11:53 PM 78.8 °F - 73.4 °F 83% 30.13 in 10.0 mi South 3.5 mph - N/A   Clear